Angel Fire, NM

6:06 PM MST on November 11, 2019 (GMT -0700)
Angel Fire

Weather History for KAXX - June, 2019

Change the Weather History Date:

Tuesday, June 4, 2019

  Actual Average (KSKX) Record (KSKX)
Temperature  
Mean Temperature 49 °F -  
Max Temperature 69 °F 76 °F 87 °F (2004)
Min Temperature 29 °F 40 °F 37 °F (2005)
Degree Days  
Heating Degree Days 16    
Moisture  
Dew Point 35 °F    
Average Humidity 69    
Maximum Humidity 96    
Minimum Humidity 20    
Precipitation  
Precipitation 0.02 in - - ()
Sea Level Pressure  
Sea Level Pressure 30.28 in    
Wind  
Wind Speed 3 mph (SE)    
Max Wind Speed 20 mph    
Max Gust Speed 37 mph    
Visibility 10 miles    
Events Rain    
Averages and records for this station are not official NWS values.
T = Trace of Precipitation, MM = Missing Value Source: NWS Daily Summary

Daily Weather History Graph

Daily Weather History Graph

Search for Another Location

Airport or City:

Astronomy

Jun. 04, 2019 Rise Set
Actual Time 5:43 AM MDT 8:15 PM MDT
Civil Twilight 5:13 AM MDT 8:45 PM MDT
Nautical Twilight 4:36 AM MDT 9:22 PM MDT
Astronomical Twilight 3:55 AM MDT 10:04 PM MDT
Moon 6:54 AM MDT (6/4) 9:46 PM MDT (6/4)
Length of Visible Light 15h 31m
Length of Day
14h 31m
New Moon, 2% of the Moon is Illuminated
Jun 4
New Moon
Jun 10
First Quarter
Jun 17
Full
Jun 25
Last Quarter
Jul 2
New

Hourly Weather History & Observations

Time (MDT) Temp. Windchill Dew Point Humidity Pressure Visibility Wind Dir Wind Speed Gust Speed Precip Events Conditions
12:15 AM 35.8 °F 33.0 °F 33.3 °F 91% 30.31 in 10.0 mi South 3.5 mph - N/A   Unknown
12:35 AM 37.0 °F 33.3 °F 34.0 °F 89% 30.31 in 10.0 mi South 4.6 mph - N/A   Unknown
12:55 AM 37.0 °F - 34.5 °F 91% 30.30 in 10.0 mi Calm Calm - N/A   Unknown
1:15 AM 34.9 °F 32.0 °F 32.5 °F 91% 30.30 in 10.0 mi West 3.5 mph - N/A   Unknown
1:35 AM 33.8 °F - 31.8 °F 92% 30.31 in 10.0 mi Calm Calm - N/A   Unknown
1:55 AM 33.3 °F - 31.6 °F 94% 30.30 in 10.0 mi Calm Calm - N/A   Unknown
2:15 AM 34.2 °F - 33.1 °F 96% 30.30 in 10.0 mi Calm Calm - N/A   Unknown
2:35 AM 32.7 °F - 31.1 °F 94% 30.30 in 10.0 mi Calm Calm - N/A   Unknown
2:55 AM 33.6 °F - 32.2 °F 94% 30.29 in 10.0 mi Calm Calm - N/A   Unknown
3:15 AM 32.4 °F - 31.1 °F 95% 30.29 in 10.0 mi Calm Calm - N/A   Unknown
3:35 AM 32.0 °F - 31.1 °F 96% 30.29 in 10.0 mi Calm Calm - N/A   Unknown
3:55 AM 31.1 °F - 29.7 °F 94% 30.29 in 10.0 mi Calm Calm - N/A   Unknown
4:15 AM 31.1 °F - 29.7 °F 94% 30.29 in 10.0 mi Calm Calm - N/A   Unknown
4:35 AM 30.7 °F - 29.3 °F 94% 30.29 in 10.0 mi Calm Calm - N/A   Unknown
4:55 AM 30.2 °F - 28.9 °F 95% 30.29 in 10.0 mi Calm Calm - N/A   Unknown
5:15 AM 29.7 °F - 28.4 °F 95% 30.29 in 10.0 mi Calm Calm - N/A   Unknown
5:35 AM 30.6 °F - 29.3 °F 95% 30.29 in 10.0 mi Calm Calm - N/A   Unknown
5:55 AM 31.5 °F - 30.0 °F 94% 30.30 in 10.0 mi Calm Calm - N/A   Unknown
6:15 AM 29.7 °F - 28.2 °F 94% 30.30 in 10.0 mi Calm Calm - N/A   Unknown
6:35 AM 31.5 °F - 30.2 °F 95% 30.30 in 10.0 mi Calm Calm - N/A   Unknown
6:55 AM 34.3 °F - 32.5 °F 93% 30.30 in 10.0 mi Calm Calm - N/A   Unknown
7:15 AM 37.6 °F - 34.9 °F 90% 30.30 in 10.0 mi Calm Calm - N/A   Unknown
7:35 AM 40.1 °F - 36.3 °F 86% 30.30 in 10.0 mi Calm Calm - N/A   Unknown
7:55 AM 43.2 °F - 37.6 °F 81% 30.30 in 10.0 mi Calm Calm - N/A   Unknown
8:15 AM 45.7 °F - 38.1 °F 75% 30.30 in 10.0 mi Calm Calm - N/A   Unknown
8:35 AM 48.2 °F - 39.2 °F 71% 30.30 in 10.0 mi Calm Calm - N/A   Unknown
8:55 AM 51.1 °F - 40.5 °F 67% 30.30 in 10.0 mi NE 3.5 mph - N/A   Unknown
9:15 AM 53.6 °F - 40.8 °F 62% 30.29 in 10.0 mi NNW 3.5 mph - N/A   Unknown
9:35 AM 57.0 °F - 43.0 °F 59% 30.28 in 10.0 mi Calm Calm - N/A   Unknown
9:55 AM 60.6 °F - 41.7 °F 50% 30.28 in 10.0 mi Calm Calm - N/A   Unknown
10:35 AM 64.0 °F - 37.9 °F 38% 30.27 in 10.0 mi Calm Calm - N/A   Unknown
10:55 AM 63.3 °F - 39.7 °F 42% 30.27 in 10.0 mi ESE 5.8 mph - N/A   Unknown
11:15 AM 60.1 °F - 40.8 °F 49% 30.27 in 10.0 mi SE 9.2 mph - N/A   Unknown
11:35 AM 59.7 °F - 35.1 °F 40% 30.28 in 10.0 mi South 11.5 mph - N/A   Unknown
11:55 AM 61.0 °F - 30.7 °F 32% 30.28 in 10.0 mi SSE 9.2 mph - N/A   Unknown
12:15 PM 58.6 °F - 34.9 °F 41% 30.27 in 10.0 mi South 9.2 mph 18.4 mph N/A   Unknown
12:35 PM 63.1 °F - 33.6 °F 33% 30.26 in 10.0 mi Calm Calm - N/A   Unknown
12:55 PM 66.4 °F - 35.4 °F 32% 30.25 in 10.0 mi NNW 8.1 mph - N/A   Unknown
1:15 PM 66.6 °F - 30.9 °F 26% 30.24 in 10.0 mi East 6.9 mph - N/A   Unknown
1:35 PM 67.5 °F - 31.6 °F 26% 30.23 in 10.0 mi East 8.1 mph 18.4 mph N/A   Unknown
1:55 PM 68.5 °F - 34.3 °F 28% 30.22 in 10.0 mi WNW 10.4 mph 27.6 mph N/A   Unknown
2:15 PM 68.5 °F - 31.5 °F 25% 30.21 in 10.0 mi WNW 13.8 mph 19.6 mph N/A   Unknown
2:35 PM 69.3 °F - 27.9 °F 21% 30.20 in 10.0 mi West 16.1 mph 27.6 mph N/A   Unknown
2:55 PM 68.4 °F - 25.7 °F 20% 30.19 in 10.0 mi WNW 8.1 mph 26.5 mph N/A   Unknown
3:15 PM 68.5 °F - 29.8 °F 24% 30.19 in 10.0 mi WSW 16.1 mph 25.3 mph N/A   Unknown
3:35 PM 67.5 °F - 29.8 °F 25% 30.19 in 10.0 mi West 19.6 mph 25.3 mph N/A   Unknown
3:55 PM 64.9 °F - 26.1 °F 23% 30.19 in 10.0 mi NE 12.7 mph 36.8 mph N/A   Unknown
4:15 PM 66.2 °F - 25.5 °F 22% 30.21 in 10.0 mi SW 3.5 mph - N/A   Unknown
4:35 PM 64.2 °F - 28.2 °F 26% 30.21 in 10.0 mi SSE 6.9 mph - N/A   Unknown
4:55 PM 62.1 °F - 32.2 °F 33% 30.24 in 10.0 mi SSE 18.4 mph - N/A   Unknown
5:15 PM 56.3 °F - 36.7 °F 48% 30.25 in 10.0 mi SE 18.4 mph 31.1 mph N/A   Unknown
5:35 PM 56.5 °F - 36.3 °F 47% 30.26 in 10.0 mi ENE 13.8 mph 19.6 mph N/A   Unknown
5:55 PM 55.8 °F - 36.3 °F 48% 30.29 in 10.0 mi ESE 11.5 mph - N/A   Unknown
6:15 PM 49.3 °F - 40.1 °F 71% 30.31 in 7.0 mi SW 8.1 mph 32.2 mph 0.02 in Rain Rain
6:35 PM 50.2 °F - 40.8 °F 70% 30.31 in 10.0 mi Calm Calm - 0.02 in   Light Drizzle
6:55 PM 51.4 °F - 39.4 °F 63% 30.31 in 10.0 mi Calm Calm - 0.02 in   Unknown
7:15 PM 50.2 °F - 43.9 °F 79% 30.30 in 10.0 mi ENE 5.8 mph - N/A   Unknown
7:35 PM 49.8 °F - 42.3 °F 75% 30.31 in 10.0 mi East 8.1 mph - N/A   Unknown
7:50 PM 49.5 °F - 41.9 °F 75% 30.31 in 10.0 mi NE 4.6 mph - N/A   Unknown
8:15 PM 48.2 °F - 43.3 °F 83% 30.30 in 10.0 mi East 3.5 mph - N/A   Unknown
8:35 PM 47.3 °F - 42.8 °F 84% 30.30 in 10.0 mi Calm Calm - N/A   Unknown
8:55 PM 45.5 °F 44.2 °F 42.1 °F 88% 30.29 in 10.0 mi NNW 3.5 mph - N/A   Unknown
9:15 PM 44.1 °F 42.5 °F 41.9 °F 92% 30.29 in 10.0 mi NNW 3.5 mph - N/A   Unknown
9:35 PM 45.0 °F - 41.0 °F 86% 30.29 in 10.0 mi Calm Calm - N/A   Unknown
9:55 PM 41.5 °F 37.8 °F 38.8 °F 90% 30.29 in 10.0 mi SE 5.8 mph - N/A   Unknown
10:15 PM 40.6 °F - 38.8 °F 93% 30.29 in 10.0 mi Calm Calm - N/A   Unknown
10:35 PM 39.4 °F - 37.6 °F 93% 30.27 in 10.0 mi Calm Calm - N/A   Unknown
10:55 PM 38.3 °F 35.9 °F 36.7 °F 94% 30.30 in 10.0 mi South 3.5 mph - N/A   Unknown
11:15 PM 37.9 °F - 36.5 °F 95% 30.30 in 10.0 mi Calm Calm - N/A   Unknown
11:35 PM 38.3 °F 35.9 °F 36.5 °F 93% 30.30 in 10.0 mi SE 3.5 mph - N/A   Unknown
11:55 PM 40.1 °F - 38.1 °F 93% 30.31 in 10.0 mi Calm Calm - N/A   Unknown